This demonstration page uses our WeatherBlox Daily Observations layout. Learn more.

Left ArrowRight Arrow

44.8408, -93.29828

Hourly Observations for February 9, 2022

Temp ( °F °C ) Dew Point ( °F °C ) Humidity (%) Winds ( mph kmh ) Pressure ( in mb ) Visibility ( mi km ) Precip ( " mm )
12:53 am 00:53 Cloudy with Light Rain 35 1.7 30 -1.1 82 82 W 14 22 29.66 1005 10 16 0.00 0.00
1:16 am 01:16 Cloudy with Light Rain 35 1.7 30 -1.1 82 82 W 13 20 29.67 1005 10 16 0.00 0.00
1:30 am 01:30 Cloudy with Light Snow 35 1.7 30 -1.1 82 82 W 12 19 29.67 1005 10 16 0.00 0.00
1:53 am 01:53 Cloudy 35 1.7 30 -1.1 82 82 W 12 19 29.66 1004 9 14 0.00 0.00
2:53 am 02:53 Cloudy 35 1.7 29 -1.7 78 78 W 12 19 29.65 1004 10 16 0.00 0.00
3:31 am 03:31 Cloudy 35 1.7 29 -1.7 78 78 W 14 22 29.66 1004 10 16 0.00 0.00
3:53 am 03:53 Cloudy 35 1.7 29 -1.7 78 78 W 14 22 29.64 1004 10 16 0.00 0.00
4:09 am 04:09 Cloudy 35 1.7 29 -1.7 78 78 W 13 20 29.66 1004 10 16 0.00 0.00
4:24 am 04:24 Cloudy 35 1.7 29 -1.7 78 78 W 13 20 29.66 1004 10 16 0.00 0.00
4:42 am 04:42 Cloudy 35 1.7 29 -1.7 78 78 W 14 22 29.66 1004 10 16 0.00 0.00
4:53 am 04:53 Cloudy 35 1.7 29 -1.7 78 78 W 12 19 29.64 1004 10 16 0.00 0.00
5:53 am 05:53 Cloudy 34 1.1 29 -1.7 82 82 W 13 20 29.64 1004 10 16 0.00 0.00
6:53 am 06:53 Cloudy 34 1.1 28 -2.2 79 79 WNW 12 19 29.65 1004 10 16 0.00 0.00
7:53 am 07:53 Cloudy 34 1.1 28 -2.2 79 79 WNW 13 20 29.66 1005 10 16 0.00 0.00
8:16 am 08:16 Cloudy 35 1.7 28 -2.2 76 76 WNW 15 24 29.69 1005 10 16 0.00 0.00
8:53 am 08:53 Cloudy 35 1.7 28 -2.2 76 76 WNW 18 30 29.67 1005 10 16 0.00 0.00
9:20 am 09:20 Cloudy 35 1.7 25 -3.9 67 67 NW 21 33 29.69 1005 10 16 0.00 0.00
9:53 am 09:53 Cloudy 35 1.7 25 -3.9 67 67 NW 23 37 29.69 1005 10 16 0.00 0.00
10:34 am 10:34 Cloudy 35 1.7 25 -3.9 67 67 NNW 17 28 29.71 1006 10 16 0.00 0.00
10:53 am 10:53 Cloudy 34 1.1 25 -3.9 70 70 NW 21 33 29.71 1006 10 16 0.00 0.00
11:33 am 11:33 Cloudy 34 1.1 24 -4.4 67 67 NW 15 24 29.73 1007 10 16 0.00 0.00
11:53 am 11:53 Cloudy 34 1.1 24 -4.4 67 67 NW 18 30 29.72 1006 10 16 0.00 0.00
12:04 pm 12:04 Cloudy 34 1.1 24 -4.4 67 67 NW 14 22 29.73 1007 10 16 0.00 0.00
12:43 pm 12:43 Cloudy 33 0.6 23 -5 66 66 WNW 23 37 29.74 1007 10 16 0.00 0.00
12:53 pm 12:53 Cloudy 33 0.6 23 -5 66 66 NW 24 39 29.72 1006 10 16 0.00 0.00
1:53 pm 13:53 Cloudy 32 0 23 -5 69 69 NW 18 30 29.74 1007 10 16 0.00 0.00
2:40 pm 14:40 Windy with Snow Likely 32 0 22 -5.6 66 66 NW 25 41 29.77 1008 10 16 0.00 0.00
2:53 pm 14:53 Windy with Snow Likely 31 -0.6 22 -5.6 69 69 NW 21 33 29.76 1008 9 14 0.00 0.00
3:21 pm 15:21 Windy with Snow Likely 31 -0.6 20 -6.7 64 64 NW 24 39 29.80 1009 9 14 0.00 0.00
3:53 pm 15:53 Cloudy with Light Snow 30 -1.1 21 -6.1 69 69 NW 18 30 29.79 1009 8 13 0.00 0.00
4:25 pm 16:25 Cloudy 30 -1.1 20 -6.7 66 66 NW 21 33 29.83 1010 9 14 0.00 0.00
4:53 pm 16:53 Cloudy 30 -1.1 20 -6.7 66 66 NW 16 26 29.82 1010 10 16 0.00 0.00
5:17 pm 17:17 Cloudy 29 -1.7 20 -6.7 69 69 NW 17 28 29.85 1011 10 16 0.00 0.00
5:53 pm 17:53 Cloudy 29 -1.7 19 -7.2 66 66 NW 20 31 29.84 1011 10 16 0.00 0.00
6:29 pm 18:29 Cloudy 28 -2.2 19 -7.2 69 69 NW 17 28 29.88 1012 10 16 0.00 0.00
6:53 pm 18:53 Cloudy 28 -2.2 19 -7.2 69 69 NW 21 33 29.87 1012 10 16 0.00 0.00
7:53 pm 19:53 Cloudy 26 -3.3 17 -8.3 69 69 NW 16 26 29.90 1013 10 16 0.00 0.00
8:53 pm 20:53 Cloudy 24 -4.4 16 -8.9 71 71 NW 15 24 29.93 1014 10 16 0.00 0.00
9:53 pm 21:53 Cloudy 23 -5 14 -10 68 68 NW 20 31 29.95 1014 10 16 0.00 0.00
10:53 pm 22:53 Cloudy 22 -5.6 13 -10.6 68 68 WNW 14 22 29.97 1015 10 16 0.00 0.00
10:56 pm 22:56 Cloudy with Light Snow 22 -5.6 13 -10.6 68 68 NW 16 26 30.01 1016 10 16 0.00 0.00
11:53 pm 23:53 Cloudy with Light Snow 20 -6.7 12 -11.1 71 71 NW 16 26 29.99 1016 9 14 0.00 0.00

Powered by AerisWeather